User: anonymous
Location: Unspecified
(0.0000°N, 0.0000°E)
Time: 15:31:17
(UTC+00:00)
Language:

AUBIESAT-1 - Orbit

View from above orbital plane
View from above orbital plane
View from above satellite
View from above satellite

Ground track
Ground track

The orbit data is extracted from the following two-line orbital elements,

1 37854U 11061E   14211.76006411  .00002803  00000-0  19226-3 0  8535
2 37854 101.7151 264.2149 0212831 287.5871 195.9520 14.91177719149202
Epoch (UTC): 30 July 2014 18:14:29
Eccentricity: 0.0212831
inclination: 101.7151°
perigee height: 446 km
apogee height: 742 km
right ascension of ascending node: 264.2149°
argument of perigee: 287.5871°
revolutions per day: 14.91177719
mean anomaly at epoch: 195.9520°
orbit number at epoch: 14920

The dashed part of the orbit path shows where the satellite is in the earth's shadow,  

DLR